Lid_Strength_Index
3 2 2 2 2 1 1 1 1 1 1 1 2 2 2 1 1 0 -0 0 3 3 2 0 1 1 1 1 1 1 1 2 1 2 2 1 1 2 2 2 1 0 1
4 3 3 2 2 2 2 1 1 1 1 1 1 1 1 1 1 0 0 0 0 -0 0 0 0 1 2 1 1 1 2 2 2 3 3 5 3 2 2 2 -0 -0 -0
5 4 3 3 2 2 2 1 1 1 1 1 1 1 0 1 1 2 1 0 0 -0 -0 0 1 4 3 3 2 1 1 3 1 1 3 5 6 4 2 1 0 2 0
5 4 3 3 3 2 1 1 1 1 1 0 1 2 2 3 2 1 1 0 0 -0 0 0 0 3 5 4 1 0 1 1 3 2 1 3 2 5 5 2 1 1 0
5 4 4 3 2 2 2 1 1 1 1 1 1 1 2 1 1 1 1 1 1 0 -0 0 0 0 0 1 0 1 1 2 3 4 2 2 2 2 4 5 3 1 0
5 4 3 3 2 2 2 1 1 1 1 1 1 1 2 2 2 1 1 1 1 0 1 0 0 0 1 2 0 1 1 1 4 4 2 3 3 3 3 4 4 3 2
4 4 4 4 3 2 2 2 2 2 1 1 1 1 1 1 2 2 1 2 1 1 1 0 0 0 1 0 1 0 1 1 1 1 1 1 2 3 3 3 4 4 2
4 4 4 3 3 3 2 2 2 2 1 1 1 1 1 1 1 1 1 1 1 1 0 0 0 0 0 0 0 1 0 1 1 1 1 1 1 1 2 3 3 5 4
5 4 4 3 3 3 2 2 2 2 1 1 1 1 1 1 1 1 1 1 1 0 0 0 0 0 0 0 0 1 1 1 1 1 1 1 1 1 1 1 2 3 6
5 4 4 3 3 2 2 2 1 2 2 1 1 1 1 1 1 1 1 1 1 1 0 0 0 0 0 0 1 1 1 1 1 1 1 1 1 1 1 1 1 2 3
5 4 4 3 3 2 2 2 2 2 2 1 1 1 1 1 1 1 1 1 1 1 1 0 0 0 0 0 1 1 1 1 1 1 1 1 1 1 1 1 1 1 2
4 4 4 3 3 3 2 3 2 4 2 1 1 1 1 1 1 1 1 0 1 0 0 0 1 1 1 1 1 1 1 1 2 1 1 1 1 1 1 1 2 2 1
5 4 4 4 4 3 3 2 3 3 3 2 1 1 1 1 1 1 1 0 1 1 0 0 1 1 1 1 0 1 1 1 1 1 1 1 1 2 1 1 1 1 1
5 5 4 4 3 3 3 2 2 1 3 3 1 2 1 1 1 1 1 1 0 1 1 1 1 1 1 1 1 1 1 1 1 1 1 1 1 2 1 1 2 1 2
5 5 5 4 4 3 3 2 2 2 2 2 2 2 1 1 1 1 1 1 1 1 0 1 1 0 1 2 3 1 1 1 1 1 0 1 1 0 1 1 1 2 2
6 5 4 4 4 4 3 2 2 3 1 2 2 1 1 1 1 1 1 1 1 1 1 1 1 2 3 5 4 2 1 1 1 1 1 1 3 2 2 3 2 2 2
5 5 4 4 3 3 3 3 2 3 3 3 3 3 2 2 2 1 1 1 1 1 1 1 3 4 6 7 6 3 1 1 1 1 1 1 4 5 3 1 2 3 3
5 5 4 4 3 3 2 2 3 4 4 4 4 4 4 4 4 3 2 2 2 2 2 4 6 7 7 8 7 5 1 1 3 3 3 5 7 7 5 2 2 2 3
5 6 6 4 3 2 2 3 4 4 5 5 5 4 4 4 5 5 4 2 1 3 4 5 7 8 9 8 7 3 1 4 5 5 4 5 7 6 4 2 3 5 4
6 7 6 6 5 4 2 4 4 5 5 4 4 4 4 4 4 3 3 3 4 5 5 6 7 8 8 9 8 6 2 4 6 6 7 6 7 7 7 3 6 7 6
7 7 7 8 7 6 4 5 5 5 4 4 5 4 4 4 4 3 3 3 5 5 6 6 6 7 8 8 9 8 7 5 3 4 6 6 7 7 7 6 6 6 6
7 7 7 7 7 6 6 8 7 5 5 5 5 5 5 4 3 2 2 2 4 5 6 6 6 6 7 9 9 9 8 6 7 7 7 7 8 7 7 6 5 5 3
7 7 7 8 6 7 7 8 7 6 5 6 6 5 5 5 5 4 3 3 3 4 5 6 7 7 8 9 10 10 9 8 9 9 8 8 8 7 6 5 5 4 3
8 8 8 8 7 7 7 7 6 6 6 7 6 5 6 8 9 9 10 10 9 6 5 4 7 9 10 10 12 12 11 10 10 11 10 8 7 7 6 5 5 5 6
6 7 8 8 7 7 7 5 5 6 6 6 6 7 8 9 11 12 11 11 13 12 8 9 9 9 11 13 13 14 14 13 12 13 7 6 6 4 4 3 4 5 5
7 7 6 6 6 6 6 6 6 5 5 6 6 6 7 8 9 11 13 11 12 13 13 13 12 13 13 13 14 15 14 14 13 8 8 9 8 8 7 6 7 7 6